Погода в Растопуловке

Россия / Астраханская область     46°29′46″N   48°02′16″E
темп.,
°C
ветер,
м/с
пор.,
м/с
влажн.,
%
обл.,
%
осадки,
мм/ч
давл.,
гПа
погр.,
м
24 сентября, пт
пт2401:00+14с4686100 1.9 1011296
04:00+14ссв5987100 2.1 1009332
07:00+15ссв61181100 0.0 1007475
10:00+18ссз4459100 0.0 1007843
13:00+21ссз7646100 0.0 10061118
16:00+17сз896410 0.0 1008863
19:00+14зсз7107741 0.0 1010490
22:00+13зсз71176100 0.0 1011586
25 сентября, сб
сб2501:00+12зсз5107146 0.0 1012453
04:00+11зсз49770 0.0 1012263
07:00+10з36780 0.0 1013148
10:00+16зсз235958 0.0 1012573
13:00+19зсз2342100 0.0 10121148
16:00+20зсз2338100 0.0 10121494
19:00+17з2246100 0.0 1013359
22:00+16юз3450100 0.0 1014127
26 сентября, вс
вс2601:00+15з3775100 0.3 1014545
04:00+14зюз4977100 0.4 1014459
07:00+12зюз48823 0.3 1015300
10:00+16з68565 0.3 1015809
13:00+18зсз78486 0.1 10151462
16:00+18з7943100 0.1 10141977
19:00+17з8104657 0.0 10131065
22:00+14зюз71374100 0.6 1012957
27 сентября, пн
пн2701:00+15зюз7138399 1.4 1010993
04:00+15з914769 2.1 1009748
07:00+13з813740 0.0 1010846
10:00+15зсз911614 0.0 10111174
13:00+17зсз911415 0.0 10111886
16:00+18зсз9123611 0.0 10122305
19:00+14зсз6104451 0.0 1014894
22:00+14зсз595013 0.0 1015596
28 сентября, вт
вт2801:00+12зсз48636 0.0 1015283
04:00+12зсз486897 0.0 1016306
07:00+12зсз4668100 0.0 1018293
10:00+14ссз346598 0.1 1019605
13:00+18ссз344585 0.1 10191874
16:00+17с544742 0.3 10201441
19:00+14ссв685311 0.0 1022535
22:00+13ссв4653100 0.0 1024522